Location: Days
(41.3591°N, 106.7339°W)
Time: 00:43:41
(UTC+00:00)

DIWATA 2B (PO-101) - Visible Passes

Search period start: 29 June 2022 00:00
Search period end: 09 July 2022 00:00
Orbit: 585 x 597 km, 98.0° (Epoch: 28 June)

Date Brightness Start Highest point End Pass type
(mag) Time Alt. Az. Time Alt. Az. Time Alt. Az.
29 Jun ? 07:48:52 10° E 07:51:14 15° ENE 07:53:37 10° NNE visible
29 Jun ? 09:25:22 41° SW 09:26:19 49° W 09:30:26 10° NNW visible
30 Jun ? 07:57:15 12° ESE 07:59:29 18° ENE 08:02:21 10° NNE visible
30 Jun ? 09:33:49 35° SW 09:34:42 40° W 09:38:41 10° NNW visible
01 Jul ? 08:05:43 15° ESE 08:07:45 22° ENE 08:10:59 10° NNE visible
01 Jul ? 09:42:17 30° WSW 09:43:04 32° W 09:46:52 10° NNW visible
02 Jul ? 08:14:11 19° ESE 08:16:02 26° ENE 08:19:32 10° NNE visible
02 Jul ? 09:50:44 25° WSW 09:51:27 26° W 09:55:01 10° NW visible
03 Jul ? 08:22:37 23° ESE 08:24:18 31° ENE 08:28:03 10° N visible
03 Jul ? 09:59:11 21° WSW 09:59:50 21° W 10:03:06 10° NW visible
04 Jul ? 08:31:05 28° ESE 08:32:36 38° ENE 08:36:31 10° N visible
04 Jul ? 10:07:39 17° WSW 10:08:15 17° W 10:11:06 10° NW visible
05 Jul ? 08:39:33 34° ESE 08:40:54 48° ENE 08:44:58 10° N visible
05 Jul ? 10:16:07 14° W 10:16:40 14° W 10:18:57 10° WNW visible
06 Jul ? 08:48:00 41° SE 08:49:12 59° ENE 08:53:22 10° N visible
06 Jul ? 10:24:35 11° W 10:25:05 11° W 10:26:29 10° WNW visible
07 Jul ? 08:56:28 49° SE 08:57:31 74° ENE 09:01:44 10° N visible
08 Jul ? 09:04:56 55° S 09:05:51 88° W 09:10:05 10° NNW visible
